Tracking 29892 objects as of 21-Nov-2024
HD Live streaming from Space Station
objects crossing your sky now

STARLINK-32449

Track STARLINK-32449 now!
10-day predictions
STARLINK-32449 is classified as:


NORAD ID: 61670
Int'l Code: 2024-193K
Perigee: 453.4 km
Apogee: 455.4 km
Inclination: 53.2 °
Period: 93.5 minutes
Semi major axis: 6825 km
RCS: Unknown
Launch date: October 26, 2024
Source: United States (US)
Launch site: AIR FORCE EASTERN TEST RANGE (AFETR)
Your satellite tracking list
Your tracking list is empty




NASA's NSSDC Master Catalog

Two Line Element Set (TLE):
1 61670U 24193K   24326.16667824  .00002098  00000-0  62448-4 0  9993
2 61670  53.1595 135.1154 0001498  98.6408 232.5001 15.39603777  5137
Source of the keplerian elements: AFSPC